SCP
0 0 0 0 0 0 0 0 0 0 0 0 0 0 0 0 0 0 0 0 0 0 0 0 0 0 0 0 -0 -0 -0 1 1 1 1 1 1 1 1 1 0 1 0 0
0 0 0 0 0 0 0 0 0 0 0 0 0 0 0 0 0 0 0 0 0 0 1 0 0 1 2 1 0 -0 -0 0 1 1 2 2 1 1 1 1 1 1 0 0
0 0 0 0 0 0 0 0 0 0 0 0 0 0 0 0 0 0 0 0 0 1 1 1 3 3 2 1 2 2 1 1 0 2 2 3 2 2 1 1 1 1 0 1
0 0 0 0 0 0 0 0 0 0 0 0 0 0 0 0 0 0 0 0 0 1 2 3 2 2 1 2 1 1 1 3 2 2 2 2 1 1 2 2 1 1 1 1
0 0 0 0 0 -0 -0 0 -0 0 0 0 0 0 0 0 0 0 0 0 2 1 2 3 2 0 0 0 0 0 1 1 2 2 2 2 3 3 2 2 2 1 1 1
0 0 0 0 0 0 -0 -0 -0 0 0 0 0 0 0 0 0 0 0 2 2 0 0 0 0 0 0 0 0 0 0 0 0 1 1 1 1 1 1 1 1 2 1 1
0 0 0 0 0 0 0 0 0 0 0 0 0 0 0 0 0 0 0 0 0 0 0 0 0 0 0 0 0 0 0 0 0 1 1 1 1 0 0 0 1 1 1 1
0 0 0 0 0 0 0 0 0 0 0 0 0 0 0 0 0 0 0 0 0 0 0 0 0 0 0 0 0 0 0 0 0 0 0 1 1 1 0 0 0 1 1 1
0 0 0 0 -0 -0 0 0 0 0 0 0 0 0 0 0 0 0 0 0 0 0 0 0 0 0 0 0 0 0 0 0 0 0 0 0 0 0 0 0 0 0 0 0
0 0 0 0 0 0 0 0 0 0 0 -0 0 0 1 0 0 0 0 0 0 0 0 0 0 0 0 0 0 0 0 0 0 0 0 0 0 0 0 0 0 0 0 0
0 0 0 0 0 0 0 0 0 0 0 0 0 0 0 0 0 0 0 -0 0 0 0 0 0 0 0 0 0 0 0 0 0 0 0 0 0 0 0 0 0 0 0 0
0 0 0 0 0 0 0 0 0 0 0 0 0 0 0 0 -0 0 -0 -0 -0 0 0 0 0 0 0 0 0 0 0 0 0 0 0 0 0 0 0 0 0 0 0 0
0 0 0 0 0 0 0 0 0 0 0 -0 -0 0 0 0 -0 -0 -0 -0 -0 -0 0 -0 -0 -0 0 0 0 0 0 0 0 0 0 0 0 0 0 0 0 0 0 0
0 0 0 0 0 0 0 0 0 0 0 0 -0 -0 -0 -0 0 -0 -0 -0 -0 -0 -0 0 0 0 0 0 0 0 0 0 0 0 0 0 0 0 0 0 0 0 0 0
0 0 0 0 0 0 0 0 0 0 0 0 0 -0 -0 -0 0 -0 -0 -0 -0 -0 0 0 0 0 0 0 0 0 0 0 0 0 0 0 0 0 0 0 0 0 0 0
0 0 0 0 0 0 0 0 0 0 0 0 0 0 -0 0 0 0 -0 0 0 0 0 0 0 0 0 0 0 0 0 0 0 0 0 0 0 0 0 0 0 0 0 0
0 0 0 0 0 0 0 0 0 0 0 0 0 0 0 0 0 0 0 0 0 0 0 0 0 0 0 0 0 0 0 0 0 0 0 0 0 0 0 0 0 0 0 0
0 0 0 0 0 0 0 0 0 0 0 0 0 0 0 0 0 0 0 0 0 0 0 0 0 0 0 0 0 0 -0 0 0 0 0 0 0 0 0 0 0 0 0 0
0 0 0 0 0 0 0 0 0 0 0 0 0 0 0 0 0 0 0 0 0 0 0 0 0 0 0 0 0 0 0 0 0 0 0 0 0 0 0 0 0 0 0 0
0 0 0 0 0 0 0 0 0 0 0 0 0 0 0 0 0 0 0 0 0 0 0 0 0 0 0 0 0 0 0 0 0 0 0 0 0 0 0 0 0 0 0 0
0 0 0 0 0 0 0 0 0 0 0 0 0 0 0 0 0 0 0 0 0 0 0 0 0 0 0 0 0 0 0 0 0 0 0 0 0 0 0 0 0 0 0 0
0 0 0 0 0 0 0 0 0 0 0 0 0 0 0 0 0 0 0 0 0 0 0 0 0 0 0 0 0 0 0 0 0 0 0 0 0 0 0 0 0 0 0 0
0 0 0 0 0 0 0 0 0 0 0 0 0 0 0 0 0 0 0 0 0 0 0 0 0 0 0 0 0 0 0 0 0 0 0 0 0 0 0 0 0 0 0 0
0 0 0 0 0 0 0 0 0 0 0 0 0 0 0 0 0 0 0 0 0 0 0 0 0 0 0 0 0 0 0 0 0 0 0 0 0 0 0 0 0 0 0 0
0 0 0 0 0 0 0 0 0 0 0 0 0 0 0 0 0 0 0 0 0 0 0 0 0 0 0 0 0 0 0 0 0 0 0 0 0 0 0 0 0 0 0 0
0 0 0 0 0 0 0 0 0 0 0 0 0 0 0 0 0 0 0 0 0 0 0 0 0 0 0 0 0 0 0 0 0 0 0 0 0 0 0 0 0 0 0 0
Wind_Speed_500mb
9 7 10 18 15 17 10 11 23 32 32 8 28 17 28 35 10 15 30 66 61 63 55 52 47 39 50 47 45 52 60 70 63 62 64 62 47 47 42 38 39 43 40 42
11 9 23 15 17 15 17 23 25 24 22 8 15 18 14 7 8 23 51 66 72 65 67 65 56 55 51 38 49 53 50 46 45 63 75 83 70 59 62 63 60 52 43 41
11 16 12 10 18 22 27 12 17 19 20 7 6 14 11 17 9 15 41 49 66 80 74 59 55 45 41 44 54 47 41 38 33 58 72 62 50 41 39 53 61 61 57 52
11 10 8 19 16 12 10 20 24 26 4 14 7 15 6 11 16 15 38 74 73 74 69 64 56 44 35 34 33 45 40 36 32 31 37 39 33 31 36 37 37 38 45 46
18 15 15 14 13 19 18 20 17 26 12 3 4 6 16 8 20 30 17 52 65 68 72 67 60 55 44 33 26 23 26 36 35 30 25 29 35 36 40 40 42 44 37 38
14 41 5 2 7 13 16 17 14 4 4 12 11 12 8 10 17 28 6 32 43 59 68 65 57 47 39 30 25 22 18 24 29 25 24 28 37 35 31 39 36 39 34 39
10 10 7 33 17 17 21 15 10 11 7 13 6 8 9 5 22 34 38 40 41 51 63 52 45 40 33 33 24 20 20 19 14 10 10 18 20 28 39 44 34 41 33 32
9 12 16 16 8 8 9 8 8 5 7 19 13 11 14 11 38 60 58 56 55 38 49 48 43 46 52 51 49 47 44 24 6 1 4 7 14 20 25 31 35 31 36 32
10 8 23 17 6 5 10 4 3 11 8 9 13 10 11 4 30 54 58 68 67 60 52 44 51 46 44 42 42 48 45 39 31 27 23 16 9 6 17 18 19 23 28 36
4 9 7 12 13 9 9 5 4 7 5 11 13 10 10 13 20 32 42 47 53 48 66 65 60 56 47 45 47 42 38 37 30 25 23 22 20 16 15 15 15 20 24 33
4 5 12 10 8 11 8 7 9 2 5 7 3 12 4 15 24 34 50 38 44 32 55 49 47 35 24 24 28 31 26 19 14 16 18 21 24 25 24 24 26 27 24 23
1 7 3 8 9 13 9 9 8 7 6 7 9 9 17 8 22 43 59 61 39 20 12 15 6 16 14 18 13 5 9 17 18 21 21 20 23 24 27 28 26 32 35 32
4 4 7 15 11 6 8 6 7 7 6 10 7 9 12 26 15 30 44 54 58 56 35 14 29 9 12 6 2 9 18 28 31 30 30 30 33 31 25 26 27 32 39 40
12 6 12 11 13 10 12 12 19 14 7 6 10 12 10 25 7 25 33 43 48 39 38 29 19 27 13 11 11 10 16 22 32 39 37 39 33 32 28 25 25 30 35 39
7 9 7 9 12 12 21 19 19 15 20 10 20 17 19 26 20 37 39 28 29 33 21 36 30 22 11 6 6 15 20 27 32 38 43 43 40 35 35 32 31 28 28 36
7 5 3 5 11 12 20 28 30 22 28 16 13 18 14 26 38 33 44 45 18 46 39 32 22 10 3 5 8 14 21 28 36 34 32 39 43 37 37 37 37 30 27 25
3 6 3 8 8 13 11 6 13 10 13 8 2 13 7 22 34 41 51 53 47 40 31 25 15 5 8 20 31 40 45 49 39 38 42 45 38 37 39 40 40 35 27 27
9 6 6 7 8 4 11 24 16 22 17 21 8 13 30 41 52 50 46 45 38 30 19 7 6 16 27 36 44 51 50 46 48 50 37 37 43 45 44 41 41 40 39 27
26 10 2 4 5 13 15 7 9 7 11 15 21 21 32 47 54 34 27 23 21 14 9 5 6 13 22 36 43 43 44 49 46 37 39 36 33 36 45 53 50 47 42 45
10 7 10 5 4 8 10 12 21 8 0 8 25 17 19 18 8 4 14 12 9 2 7 14 22 15 15 16 17 25 37 45 42 39 43 42 37 37 39 38 41 52 58 54
4 4 12 5 6 13 13 26 24 3 12 11 21 26 23 11 14 18 15 12 4 10 20 15 22 28 22 21 31 30 34 35 32 38 40 42 39 37 43 42 45 41 41 46
8 8 6 3 4 12 18 7 1 6 14 25 20 18 20 19 15 6 8 15 23 22 19 27 28 24 30 38 38 37 39 41 42 47 45 47 41 45 43 44 41 36 38 42
1 10 7 11 9 3 13 5 8 10 5 15 24 18 13 6 8 11 13 18 20 22 24 25 33 35 35 39 33 42 41 40 44 50 46 42 44 43 42 39 38 39 38 37
10 8 6 5 9 7 10 8 8 11 17 16 11 6 2 4 10 19 22 22 20 20 25 32 35 39 44 39 40 45 46 40 47 42 40 38 35 38 34 37 39 43 40 42
11 4 5 7 17 17 15 21 19 21 18 13 7 4 4 10 13 14 17 25 29 31 34 40 39 35 37 44 47 45 44 44 38 33 30 27 28 35 39 39 39 37 38 44
15 12 5 10 25 13 15 24 27 33 24 15 8 5 2 7 13 19 23 23 27 33 35 38 37 37 38 42 45 42 35 28 26 27 28 34 39 41 42 45 45 40 43 43
Wind_Direction_500mb
302 73 245 245 218 230 241 255 268 279 280 281 290 286 276 218 179 222 152 147 137 127 128 138 161 178 175 172 186 200 198 214 208 212 215 209 205 216 218 221 235 246 250 251
10 265 254 242 259 234 249 256 268 277 273 231 305 304 303 274 179 179 147 139 137 136 136 132 134 139 147 170 183 188 198 207 208 214 217 224 236 236 237 239 240 242 246 245
184 249 289 234 268 270 269 250 276 249 292 222 323 319 337 313 212 166 156 153 146 144 137 137 135 142 157 136 159 173 186 202 209 217 222 232 234 242 243 241 242 246 249 251
251 276 273 296 292 264 261 258 264 271 286 279 131 276 292 278 311 37 155 157 153 144 140 142 140 137 142 145 153 165 174 182 184 199 215 229 236 245 255 253 250 252 254 255
255 285 297 298 277 316 291 280 270 278 253 255 239 101 277 2 360 354 271 154 148 142 138 132 128 127 132 149 155 153 163 172 176 186 209 229 227 237 242 244 251 255 262 262
244 286 49 14 325 9 330 349 341 312 134 256 238 140 13 11 331 316 206 117 113 112 118 113 109 114 111 115 128 127 132 156 169 192 214 231 243 244 245 248 249 253 261 254
333 3 7 18 3 351 38 41 346 330 336 250 355 85 83 65 49 36 42 48 84 99 101 101 97 91 86 84 95 118 111 92 103 150 207 245 261 255 260 266 275 265 275 269
46 336 23 359 14 322 331 119 143 218 341 308 287 182 160 136 80 61 44 52 79 73 103 97 93 94 90 84 78 78 84 97 124 98 254 269 273 269 274 278 279 280 273 277
27 301 337 21 351 64 311 330 183 145 163 325 287 108 167 152 73 63 47 42 52 62 75 90 94 96 94 85 84 76 71 73 70 72 73 73 50 318 275 303 304 306 286 291
309 299 315 339 354 60 97 335 358 27 170 209 269 237 151 166 109 90 59 44 35 48 65 71 73 80 84 81 77 82 72 69 55 38 33 29 26 21 12 0 339 321 309 280
81 107 302 10 344 273 6 67 73 136 178 226 131 292 351 169 152 128 114 81 51 16 73 65 63 66 74 80 79 70 62 53 40 25 11 359 357 353 347 345 337 327 328 326
234 127 323 286 326 108 130 159 141 158 200 310 297 246 1 249 154 142 134 138 149 152 2 63 100 82 59 88 103 88 29 7 344 324 312 313 322 330 341 338 335 338 331 317
164 29 13 348 327 349 85 198 169 115 96 206 164 279 347 301 150 144 147 166 181 188 219 226 216 207 160 141 15 324 330 312 308 313 315 301 300 311 317 335 331 327 330 329
103 137 160 202 225 250 294 283 192 176 178 211 221 254 203 262 192 161 167 178 190 204 199 200 208 110 166 110 79 353 302 297 299 298 303 300 304 302 313 319 315 317 314 323
99 189 215 247 278 300 302 316 300 207 231 196 271 210 242 202 199 187 171 175 179 194 210 162 135 127 117 84 294 294 314 311 306 309 309 313 316 298 296 309 313 297 301 303
4 272 277 262 275 330 316 296 282 275 257 272 251 204 218 176 172 193 181 181 166 135 131 122 112 110 100 306 323 327 319 308 306 306 305 301 304 308 300 294 307 307 301 283
228 152 48 271 321 330 311 273 289 69 13 292 115 220 129 82 101 116 117 129 118 117 110 105 107 86 341 327 325 320 319 316 312 313 301 291 292 293 298 303 304 297 312 296
192 138 146 259 2 260 238 309 105 94 24 3 46 82 108 110 105 102 109 113 115 113 109 96 330 313 310 312 314 316 322 315 313 322 328 313 299 288 289 293 299 308 292 296
193 138 241 150 197 285 308 359 4 357 4 1 74 89 110 113 93 90 108 107 106 99 91 79 330 310 306 304 308 315 325 323 318 322 336 340 340 328 305 294 292 298 302 292
138 141 159 143 161 240 249 296 337 54 95 317 91 86 102 186 72 226 101 78 81 39 304 302 297 288 288 278 288 301 310 313 312 312 315 315 313 316 315 316 310 296 292 291
65 64 184 155 208 281 258 295 293 175 232 150 116 116 113 102 120 125 110 113 55 324 322 308 305 312 310 306 320 323 318 304 313 304 305 309 306 311 311 314 314 302 300 295
184 149 207 105 144 279 354 328 206 243 127 134 126 114 98 100 104 66 332 310 311 315 321 318 317 309 306 308 313 314 307 313 311 312 305 302 302 310 307 311 313 306 301 301
255 175 183 175 227 276 335 78 95 80 176 139 124 110 107 82 6 350 336 326 325 323 320 312 318 318 309 313 311 318 312 308 305 303 303 301 297 300 305 303 305 312 312 309
333 168 186 76 259 213 301 233 117 200 172 131 122 108 21 24 338 331 319 315 322 320 316 320 310 308 307 312 308 309 306 309 308 302 303 300 299 302 303 310 307 309 302 305
239 319 238 251 283 287 215 204 187 151 156 157 154 118 352 309 313 315 316 321 326 327 325 321 316 306 300 304 304 302 298 308 307 305 309 308 308 309 305 307 307 308 308 306
219 212 167 238 258 230 261 176 167 163 163 155 152 153 124 340 339 324 321 320 317 313 318 316 320 317 310 311 308 310 309 305 308 304 303 307 305 302 303 306 305 300 308 306
Wind_Speed_850mb
9 7 10 18 15 17 10 11 23 32 32 8 28 17 28 35 10 15 30 66 61 63 55 52 47 39 50 47 45 52 60 70 63 62 64 62 47 47 42 38 39 43 40 42
11 9 23 15 17 15 17 23 25 24 22 8 15 18 14 7 8 23 51 66 72 65 67 65 56 55 51 38 49 53 50 46 45 63 75 83 70 59 62 63 60 52 43 41
11 16 12 10 18 22 27 12 17 19 20 7 6 14 11 17 9 15 41 49 66 80 74 59 55 45 41 44 54 47 41 38 33 58 72 62 50 41 39 53 61 61 57 52
11 10 8 19 16 12 10 20 24 26 4 14 7 15 6 11 16 15 38 74 73 74 69 64 56 44 35 34 33 45 40 36 32 31 37 39 33 31 36 37 37 38 45 46
18 15 15 14 13 19 18 20 17 26 12 3 4 6 16 8 20 30 17 52 65 68 72 67 60 55 44 33 26 23 26 36 35 30 25 29 35 36 40 40 42 44 37 38
14 41 5 2 7 13 16 17 14 4 4 12 11 12 8 10 17 28 6 32 43 59 68 65 57 47 39 30 25 22 18 24 29 25 24 28 37 35 31 39 36 39 34 39
10 10 7 33 17 17 21 15 10 11 7 13 6 8 9 5 22 34 38 40 41 51 63 52 45 40 33 33 24 20 20 19 14 10 10 18 20 28 39 44 34 41 33 32
9 12 16 16 8 8 9 8 8 5 7 19 13 11 14 11 38 60 58 56 55 38 49 48 43 46 52 51 49 47 44 24 6 1 4 7 14 20 25 31 35 31 36 32
10 8 23 17 6 5 10 4 3 11 8 9 13 10 11 4 30 54 58 68 67 60 52 44 51 46 44 42 42 48 45 39 31 27 23 16 9 6 17 18 19 23 28 36
4 9 7 12 13 9 9 5 4 7 5 11 13 10 10 13 20 32 42 47 53 48 66 65 60 56 47 45 47 42 38 37 30 25 23 22 20 16 15 15 15 20 24 33
4 5 12 10 8 11 8 7 9 2 5 7 3 12 4 15 24 34 50 38 44 32 55 49 47 35 24 24 28 31 26 19 14 16 18 21 24 25 24 24 26 27 24 23
1 7 3 8 9 13 9 9 8 7 6 7 9 9 17 8 22 43 59 61 39 20 12 15 6 16 14 18 13 5 9 17 18 21 21 20 23 24 27 28 26 32 35 32
4 4 7 15 11 6 8 6 7 7 6 10 7 9 12 26 15 30 44 54 58 56 35 14 29 9 12 6 2 9 18 28 31 30 30 30 33 31 25 26 27 32 39 40
12 6 12 11 13 10 12 12 19 14 7 6 10 12 10 25 7 25 33 43 48 39 38 29 19 27 13 11 11 10 16 22 32 39 37 39 33 32 28 25 25 30 35 39
7 9 7 9 12 12 21 19 19 15 20 10 20 17 19 26 20 37 39 28 29 33 21 36 30 22 11 6 6 15 20 27 32 38 43 43 40 35 35 32 31 28 28 36
7 5 3 5 11 12 20 28 30 22 28 16 13 18 14 26 38 33 44 45 18 46 39 32 22 10 3 5 8 14 21 28 36 34 32 39 43 37 37 37 37 30 27 25
3 6 3 8 8 13 11 6 13 10 13 8 2 13 7 22 34 41 51 53 47 40 31 25 15 5 8 20 31 40 45 49 39 38 42 45 38 37 39 40 40 35 27 27
9 6 6 7 8 4 11 24 16 22 17 21 8 13 30 41 52 50 46 45 38 30 19 7 6 16 27 36 44 51 50 46 48 50 37 37 43 45 44 41 41 40 39 27
26 10 2 4 5 13 15 7 9 7 11 15 21 21 32 47 54 34 27 23 21 14 9 5 6 13 22 36 43 43 44 49 46 37 39 36 33 36 45 53 50 47 42 45
10 7 10 5 4 8 10 12 21 8 0 8 25 17 19 18 8 4 14 12 9 2 7 14 22 15 15 16 17 25 37 45 42 39 43 42 37 37 39 38 41 52 58 54
4 4 12 5 6 13 13 26 24 3 12 11 21 26 23 11 14 18 15 12 4 10 20 15 22 28 22 21 31 30 34 35 32 38 40 42 39 37 43 42 45 41 41 46
8 8 6 3 4 12 18 7 1 6 14 25 20 18 20 19 15 6 8 15 23 22 19 27 28 24 30 38 38 37 39 41 42 47 45 47 41 45 43 44 41 36 38 42
1 10 7 11 9 3 13 5 8 10 5 15 24 18 13 6 8 11 13 18 20 22 24 25 33 35 35 39 33 42 41 40 44 50 46 42 44 43 42 39 38 39 38 37
10 8 6 5 9 7 10 8 8 11 17 16 11 6 2 4 10 19 22 22 20 20 25 32 35 39 44 39 40 45 46 40 47 42 40 38 35 38 34 37 39 43 40 42
11 4 5 7 17 17 15 21 19 21 18 13 7 4 4 10 13 14 17 25 29 31 34 40 39 35 37 44 47 45 44 44 38 33 30 27 28 35 39 39 39 37 38 44
15 12 5 10 25 13 15 24 27 33 24 15 8 5 2 7 13 19 23 23 27 33 35 38 37 37 38 42 45 42 35 28 26 27 28 34 39 41 42 45 45 40 43 43
Wind_Direction_850mb
302 73 245 245 218 230 241 255 268 279 280 281 290 286 276 218 179 222 152 147 137 127 128 138 161 178 175 172 186 200 198 214 208 212 215 209 205 216 218 221 235 246 250 251
10 265 254 242 259 234 249 256 268 277 273 231 305 304 303 274 179 179 147 139 137 136 136 132 134 139 147 170 183 188 198 207 208 214 217 224 236 236 237 239 240 242 246 245
184 249 289 234 268 270 269 250 276 249 292 222 323 319 337 313 212 166 156 153 146 144 137 137 135 142 157 136 159 173 186 202 209 217 222 232 234 242 243 241 242 246 249 251
251 276 273 296 292 264 261 258 264 271 286 279 131 276 292 278 311 37 155 157 153 144 140 142 140 137 142 145 153 165 174 182 184 199 215 229 236 245 255 253 250 252 254 255
255 285 297 298 277 316 291 280 270 278 253 255 239 101 277 2 360 354 271 154 148 142 138 132 128 127 132 149 155 153 163 172 176 186 209 229 227 237 242 244 251 255 262 262
244 286 49 14 325 9 330 349 341 312 134 256 238 140 13 11 331 316 206 117 113 112 118 113 109 114 111 115 128 127 132 156 169 192 214 231 243 244 245 248 249 253 261 254
333 3 7 18 3 351 38 41 346 330 336 250 355 85 83 65 49 36 42 48 84 99 101 101 97 91 86 84 95 118 111 92 103 150 207 245 261 255 260 266 275 265 275 269
46 336 23 359 14 322 331 119 143 218 341 308 287 182 160 136 80 61 44 52 79 73 103 97 93 94 90 84 78 78 84 97 124 98 254 269 273 269 274 278 279 280 273 277
27 301 337 21 351 64 311 330 183 145 163 325 287 108 167 152 73 63 47 42 52 62 75 90 94 96 94 85 84 76 71 73 70 72 73 73 50 318 275 303 304 306 286 291
309 299 315 339 354 60 97 335 358 27 170 209 269 237 151 166 109 90 59 44 35 48 65 71 73 80 84 81 77 82 72 69 55 38 33 29 26 21 12 0 339 321 309 280
81 107 302 10 344 273 6 67 73 136 178 226 131 292 351 169 152 128 114 81 51 16 73 65 63 66 74 80 79 70 62 53 40 25 11 359 357 353 347 345 337 327 328 326
234 127 323 286 326 108 130 159 141 158 200 310 297 246 1 249 154 142 134 138 149 152 2 63 100 82 59 88 103 88 29 7 344 324 312 313 322 330 341 338 335 338 331 317
164 29 13 348 327 349 85 198 169 115 96 206 164 279 347 301 150 144 147 166 181 188 219 226 216 207 160 141 15 324 330 312 308 313 315 301 300 311 317 335 331 327 330 329
103 137 160 202 225 250 294 283 192 176 178 211 221 254 203 262 192 161 167 178 190 204 199 200 208 110 166 110 79 353 302 297 299 298 303 300 304 302 313 319 315 317 314 323
99 189 215 247 278 300 302 316 300 207 231 196 271 210 242 202 199 187 171 175 179 194 210 162 135 127 117 84 294 294 314 311 306 309 309 313 316 298 296 309 313 297 301 303
4 272 277 262 275 330 316 296 282 275 257 272 251 204 218 176 172 193 181 181 166 135 131 122 112 110 100 306 323 327 319 308 306 306 305 301 304 308 300 294 307 307 301 283
228 152 48 271 321 330 311 273 289 69 13 292 115 220 129 82 101 116 117 129 118 117 110 105 107 86 341 327 325 320 319 316 312 313 301 291 292 293 298 303 304 297 312 296
192 138 146 259 2 260 238 309 105 94 24 3 46 82 108 110 105 102 109 113 115 113 109 96 330 313 310 312 314 316 322 315 313 322 328 313 299 288 289 293 299 308 292 296
193 138 241 150 197 285 308 359 4 357 4 1 74 89 110 113 93 90 108 107 106 99 91 79 330 310 306 304 308 315 325 323 318 322 336 340 340 328 305 294 292 298 302 292
138 141 159 143 161 240 249 296 337 54 95 317 91 86 102 186 72 226 101 78 81 39 304 302 297 288 288 278 288 301 310 313 312 312 315 315 313 316 315 316 310 296 292 291
65 64 184 155 208 281 258 295 293 175 232 150 116 116 113 102 120 125 110 113 55 324 322 308 305 312 310 306 320 323 318 304 313 304 305 309 306 311 311 314 314 302 300 295
184 149 207 105 144 279 354 328 206 243 127 134 126 114 98 100 104 66 332 310 311 315 321 318 317 309 306 308 313 314 307 313 311 312 305 302 302 310 307 311 313 306 301 301
255 175 183 175 227 276 335 78 95 80 176 139 124 110 107 82 6 350 336 326 325 323 320 312 318 318 309 313 311 318 312 308 305 303 303 301 297 300 305 303 305 312 312 309
333 168 186 76 259 213 301 233 117 200 172 131 122 108 21 24 338 331 319 315 322 320 316 320 310 308 307 312 308 309 306 309 308 302 303 300 299 302 303 310 307 309 302 305
239 319 238 251 283 287 215 204 187 151 156 157 154 118 352 309 313 315 316 321 326 327 325 321 316 306 300 304 304 302 298 308 307 305 309 308 308 309 305 307 307 308 308 306
219 212 167 238 258 230 261 176 167 163 163 155 152 153 124 340 339 324 321 320 317 313 318 316 320 317 310 311 308 310 309 305 308 304 303 307 305 302 303 306 305 300 308 306